Regional Weather Roundup
Issued by NWS Grand Forks, ND

Home | Current Version | Previous Version | Text Only | Print | Product List | Glossary Off
Versions: 1 2 3 4 5 6 7 8 9 10 11 12 13 14 15 16 17 18 19 20 21 22 23 24 25 26 27 28 29 30 31 32 33 34 35 36 37 38 39 40 41 42 43 44 45 46 47 48 49 50

000
ASUS43 KFGF 160810
RWRFGF
PRAIRIE TO PINES  WEATHER ROUNDUP
NATIONAL WEATHER SERVICE EASTERN NORTH DAKOTA/GRAND FORKS ND
300 AM CDT TUE SEP 16 2014

 **SATELLITE DATA USED TO AUGMENT SKY COVER AT AUTOMATED STATIONS**
 *****  WEATHER ACROSS EASTERN NORTH DAKOTA  *****

CITY           SKY/WX    TMP DP  RH WIND       PRES   REMARKS
GRAND FORKS    CLEAR     43  38  82 SW6       30.05F
GRAND FRKS AFB CLEAR     52  39  61 W12       30.05F
GRAND FRKS NWS   N/A     46 N/A N/A SW5         N/A
DEVILS LAKE    CLEAR     52  39  62 SW13      30.05F
FARGO          CLEAR     48  38  68 SW12      30.12S
WAHPETON ARPT  SUNNY     41  34  75 S6        30.15S
$$

 ***** WEATHER ACROSS CENTRAL AND WESTERN NORTH DAKOTA  *****

CITY           SKY/WX    TMP DP  RH WIND       PRES   REMARKS
BISMARCK       CLEAR     43  37  79 E3        30.10F
MINOT          CLEAR     50  40  68 SW9       30.04F
JAMESTOWN      CLEAR     44  37  76 S8        30.11S
MINOT AFB      CLEAR     46  40  81 SW8       30.03F
GARRISON         N/A     49  40  71 SW3       30.07S
WILLISTON      CLEAR     36  33  89 CALM      30.05S FOG
DICKINSON      CLEAR     44  38  79 S12       30.05S
HETTINGER      CLEAR     44  37  76 SE5       30.08F
$$

 *****  OTHER AIRPORT OBSERVATIONS IN OUR AREA  *****

CITY           SKY/WX    TMP DP  RH WIND       PRES   REMARKS
WALHALLA       FAIR      55  37  50 W9        30.01S
GRAFTON AIRPOR FAIR      45  39  81 SW9       30.03S
VALLEY CITY AR FAIR      48  36  61 SW16      30.11S
CANDO          FAIR      43  37  81 SW9       30.05S
CAVALIER APRT  FAIR      52  39  62 W9        30.01S
GWINNER        SUNNY     43  37  81 SW8       30.16S
SHEYENNE NWR     N/A     42  38  84 SW3       29.95S
ROLLA          FAIR      46  37  71 SW10      30.05S
 ***** THE ABOVE OBSERVATIONS ARE NON NWS ARE NOT QUALITY
       CONTROLLED AND MAY MIS-REPORT RAIN FOR SNOW...
$$

  *****  WEATHER ACROSS NORTHERN MINNESOTA  *****

CITY           SKY/WX    TMP DP  RH WIND       PRES   REMARKS
FLAG ISLAND    CLEAR     48  41  76 SW15      29.96S
WARROAD        CLOUDY    48  41  76 SW9       30.01F
ROSEAU         CLOUDY    48  41  76 SW10      30.01F
HALLOCK        PTCLDY    43  39  87 S7        30.01F
THF RVR FALLS  CLEAR     45  39  81 SW10      30.07S
BAUDETTE       CLEAR     42  38  85 SW7       30.02F
WASKISH        CLEAR     52  45  76 CALM      30.05F
CROOKSTON      CLEAR     43  39  87 S7        30.08S
STEPHEN NDAWN    N/A     45  41  87 SW8         N/A
GREENBUSH NDAW   N/A     48  41  76 SW8         N/A
$$
  *****  WEATHER ACROSS CENTRAL AND WEST MINNESOTA  *****

CITY           SKY/WX    TMP DP  RH WIND       PRES   REMARKS
FOSSTON        CLEAR     39  36  87 S9        30.10F
BEMIDJI        CLEAR     45  38  76 SW6       30.10S
PARK RAPIDS    CLEAR     42  37  82 SW7       30.13S
ELBOW LAKE     FAIR      39  36  87 S7        30.17S
WADENA         PTCLDY    37  36  93 CALM      30.15S
DETROIT LAKES  CLEAR     46  37  71 SW7       30.14S
MOORHEAD       CLEAR     45  41  87 S3        30.13F
FERGUS FALLS   CLEAR     43  36  75 S7        30.17S
MORRIS MN      CLEAR     39  36  87 S6        30.17F
STAPLES        CLEAR     43  36  75 SW5       30.15F
$$
  *****  WEATHER ELSEWHERE ACROSS MINNESOTA  *****

CITY           SKY/WX    TMP DP  RH WIND       PRES   REMARKS
DULUTH         CLEAR     46  36  68 W14       30.11F
INTRNTL FALLS  CLEAR     39  37  92 SW7       30.02F
ELY            MOCLDY    45  36  70 SW7       30.06F
CLOQUET        CLEAR     43  37  81 SW6       30.13S
WHEATON        CLEAR     43  36  75 SW8       30.18F
BRAINERD       CLEAR     41  35  79 S5        30.16S
HIBBING        CLEAR     31  28  89 CALM      30.09F
ALEXANDRIA     CLEAR     45  36  70 SW10      30.19S
SAINT CLOUD    CLEAR     43  38  82 CALM      30.19S
MINNEAPOLIS    CLEAR     45  41  86 S3        30.21S
$$

  *****  WEATHER ACROSS SOUTH DAKOTA  *****

CITY           SKY/WX    TMP DP  RH WIND       PRES   REMARKS
SIOUX FALLS    CLEAR     42  41  96 CALM      30.23S
BROOKINGS      NOT AVBL
WATERTOWN      CLEAR     39  36  89 SE6       30.19F
HURON          CLEAR     42  36  79 S6        30.19S
SISSETON         N/A     51  38  60 SW12      30.15F
ABERDEEN       CLEAR     34  33  96 S3        30.17S
MITCHELL       CLEAR     43  39  86 S7        30.21S
PIERRE         CLEAR     50  38  63 SE13      30.11F
MOBRIDGE       CLEAR     50  41  71 S14       30.09F
RAPID CITY     CLEAR     48  42  80 SE5       30.06F
$$

  *****  SOME WEATHER IN NEARBY STATES *****

CITY           SKY/WX    TMP DP  RH WIND       PRES   REMARKS
GLASGOW MT     CLEAR     48  36  63 E12       30.02F
GREAT FALLS MT CLEAR     49  37  63 SW10      30.01F
CHEYENNE WY    CLEAR     53  44  71 SW8       30.22F
SCOTTSBLUFF NE PTCLDY    51  49  92 E9        30.12F
OMAHA NE       FOG       47  46  97 CALM      30.28S VSB 1/2
DES MOINES IA  CLEAR     46  43  89 CALM      30.26R
DAVENPORT IA   CLEAR     40  38  93 W6        30.24R
CHICAGO IL     CLEAR     49  46  90 W3        30.18S
EAU CLAIRE WI  CLEAR     41  39  93 SW3       30.20S
LA CROSSE WI   FOG       46  43  89 S7        30.22S VSB 1
$$

  *****  SOME NATIONAL WEATHER *****

CITY           SKY/WX    TMP DP  RH WIND       PRES   REMARKS
LA GUARDIA NY  CLOUDY    63  54  72 SW6       30.04S
RALEIGH NC     MOCLDY    68  65  90 SW5       30.04F
ATLANTA GA     CLOUDY    72  70  93 CALM      30.10S FOG
NEW ORLEANS LA PTCLDY    77  75  93 W3        30.07S
OKLAHOMA CITY  MOCLDY    74  68  81 CALM      30.15F
ALBUQUERQUE NM CLOUDY    67  56  67 E17       30.31F
SALT LAKE CITY CLEAR     64  44  48 SE7       30.10R
LOS ANGELES CA CLEAR     77  61  57 E3        29.78S
BOISE ID       CLOUDY    75  40  28 SE8       29.94F
SEATTLE WA     MOCLDY    62  48  60 W3        29.84R
$$

*** WEATHER ACROSS MANITOBA...SASKATCHEWAN AND ONTARIO ***
                ***ONTARIO***

CITY           SKY/WX    TMP DP  RH WIND       PRES   REMARKS
GERALDTON      LGT RAIN  46  43  87 W7        29.90S
THUNDER BAY    PTCLDY    37  37 100 W6        30.02F
SIOUX LOOKOUT  CLOUDY    50  39  66 SW7       29.93F
TORONTO        PTCLDY    52  48  87 NW8       30.04R
BIG TROUT LK   CLEAR     30  28  93 N10       29.93R WCI  21
PICKLE LAKE    NOT AVBL
DRYDEN         CLOUDY    46  39  76 SW9       29.94F
KENORA         PTCLDY    52  39  62 SW10      29.95F
$$
                *** MANITOBA***

CITY           SKY/WX    TMP DP  RH WIND       PRES   REMARKS
BRANDON        MOCLDY    48  43  81 SW10      30.00F
DAUPHIN        CLOUDY    55  46  71 W5        29.96R
ISLAND LAKE    NOT AVBL
PILOT MOUND      N/A     43  37  81 SW8         N/A
THE PAS        CLOUDY    39  36  87 E12       30.05R
THOMPSON       CLEAR     21  21 100 CALM      30.11R
WINNIPEG       MOCLDY    54  41  62 W12G18    29.95F
LYNN LAKE      MOCLDY    23  21  93 MISG      30.12S
CHURCHILL      MOCLDY    36  28  75 NW21G26   30.04R
GILLAM         CLEAR     32  28  86 N15       30.07  WCI  22
$$
                ***SASKATCHEWAN***

CITY           SKY/WX    TMP DP  RH WIND       PRES   REMARKS
ESTEVAN        CLEAR     41  36  81 SW5       30.04S
KINDERSLEY     CLEAR     45  39  81 S9        29.96F
LLOYDMINSTER   CLEAR     50  43  76 S6        29.94F
PRINCE ALBERT  MOCLDY    48  46  93 E5        29.94F
REGINA         CLEAR     43  39  87 SE3       30.01F
YORKTON        CLOUDY    54  43  66 W9        29.97F
N. BATTLEFORD  CLEAR     43  39  87 SE6       29.96S
LA RONGE       CLOUDY    45  39  81 E10       29.99F
SASKATOON      PTCLDY    43  37  81 CALM      29.97S
SWIFT CURRENT  CLEAR     46  39  76 S12       29.99F
$$
NOTE: THESE ARE AUTOMATED STATIONS WITH LIMITED QUALITY CONTROL
      "FAIR" INDICATES FEW OR NO CLOUDS BELOW 12,000 FEET WITH NO
      SIGNIFICANT WEATHER AND/OR OBSTRUCTIONS TO VISIBILITY.
      SKY/WX - SKY CONDITION AND SIGNIFICANT WEATHER.
      TMP - AIR TEMPERATURE.    DP   - DEWPOINT TEMPERATURE.
      RH  - RELATIVE HUMIDITY.  PRES - PRESSURE.
      HX  - HEAT INDEX.         WCI  - WIND CHILL INDEX.
$


USA.gov is the U.S. government's official web portal to all federal, state and local government web resources and services.